[[{"header":{"parameterUnit":"m.s-1","parameterCategory":1,"la1":30.2991,"la2":30.254,"lo1":-89.0895,"lo2":-89.0444,"dy":0.0017,"dx":0.0017,"nx":28,"ny":28,"refTime":"2024-03-15T03:00:00:Z","depth":0,"parameterNumber":2,"parameterNumberName":"U-component_of_WINDS"},"data":[0,0,0,0,0,0,0,0,0,0,0,0,0,0,0,0,0,0,0,0,0,0,0,0,0,0,0,0,0,0,0,0,0,0,0,0,0,0,0,0,0,0,0,0,0,0,0,0,0,0,0,0,0,0,0,0,0,0,-0.7601,-0.7601,0,-0.7547,-0.7547,-0.7546,-0.7514,-0.7514,-0.7513,-0.7513,-0.7458,-0.7457,-0.7455,0,0,0,0,0,0,0,0,0,0,0,0,0,-0.7677,-0.7676,-0.7602,-0.7601,-0.76,-0.7547,-0.7547,-0.7546,-0.7514,-0.7514,-0.7513,-0.7513,-0.7458,-0.7457,-0.7455,0,0,0,0,0,0,0,0,0,0,0,0,0,-0.7636,-0.7675,-0.7602,-0.7578,-0.7575,-0.7547,-0.7547,-0.7546,-0.7514,-0.7514,-0.7513,-0.7513,-0.7459,-0.7457,-0.7455,-0.7447,0,0,-0.7449,-0.7448,0,0,0,0,0,0,0,0,-0.7638,-0.7633,-0.7582,-0.7579,-0.7576,-0.7537,-0.7553,-0.7513,-0.7514,-0.7537,-0.7513,-0.7513,-0.7485,-0.748,-0.7471,-0.7445,-0.7442,-0.7449,-0.7448,-0.7447,-0.7446,0,0,0,0,0,0,0,-0.7641,-0.7635,-0.758,-0.7581,-0.7578,-0.757,-0.7563,-0.7545,-0.7513,-0.7535,-0.7533,-0.7527,-0.7483,-0.7473,-0.7469,-0.7441,-0.7449,-0.7447,-0.7446,-0.7445,-0.7405,-0.7405,0,0,0,0,0,0,-0.7648,-0.7638,-0.7582,-0.7578,-0.7607,-0.7568,-0.7562,-0.755,-0.7513,-0.7507,-0.7527,-0.7525,-0.7476,-0.7472,-0.7467,-0.7455,-0.7447,-0.7445,-0.7444,-0.7405,-0.7405,-0.7405,0,0,0,0,0,0,-0.7649,-0.7643,-0.7584,-0.7607,-0.7599,-0.7567,-0.7554,-0.7549,-0.7539,-0.7507,-0.7501,-0.7522,-0.7476,-0.747,-0.7452,-0.7453,-0.7444,-0.7442,-0.7405,-0.7405,-0.7405,-0.7431,0,0,0,0,0,0,-0.7652,-0.7644,-0.7641,-0.7607,-0.7598,-0.757,-0.7554,-0.7548,-0.7535,-0.7533,-0.7501,-0.7495,-0.7475,-0.7455,-0.745,-0.745,-0.7441,-0.7405,-0.7405,-0.7405,-0.743,-0.7432,-0.7434,0,0,0,0,0,-0.7654,-0.765,-0.7641,-0.7634,-0.7593,-0.757,-0.7565,-0.7542,-0.7535,-0.7532,-0.7511,-0.7496,-0.7453,-0.7454,-0.7448,-0.7447,-0.7404,-0.7405,-0.7405,-0.7429,-0.7432,-0.7434,0,0,0,0,0,0,-0.7685,-0.7646,-0.7634,-0.7619,-0.7598,-0.7565,-0.756,-0.7545,-0.7526,-0.7524,-0.7496,-0.7489,-0.7474,-0.7459,-0.746,-0.7437,-0.7427,-0.7426,-0.7448,-0.745,-0.7452,-0.7456,-0.7439,0,0,0,0,0,-0.769,-0.7674,-0.7641,-0.7631,-0.7621,-0.7592,-0.7581,-0.7565,-0.7542,-0.7533,-0.7511,-0.7489,-0.7471,-0.7459,-0.7441,-0.7427,-0.742,-0.7424,-0.7426,-0.7427,-0.7427,-0.7418,-0.742,-0.7406,-0.7406,-0.7406,0,0,-0.77,-0.7676,-0.7669,-0.7636,-0.7618,-0.7602,-0.7585,-0.7569,-0.7557,-0.7531,-0.7513,-0.7496,-0.7469,-0.7454,-0.7446,-0.744,-0.7429,-0.7428,-0.7429,-0.7428,-0.7419,-0.742,-0.7421,-0.7406,-0.7406,-0.7406,0,0,-0.771,-0.7691,-0.7681,-0.7662,-0.7635,-0.7616,-0.7613,-0.7581,-0.7569,-0.755,-0.753,-0.7515,-0.7484,-0.7466,-0.7453,-0.7455,-0.7441,-0.745,-0.746,-0.7452,-0.7453,-0.7454,-0.7455,-0.7455,-0.7449,-0.7449,-0.7449,0,-0.7727,-0.7702,-0.7677,-0.7662,-0.7649,-0.7623,-0.7612,-0.7596,-0.7563,-0.7554,-0.7548,-0.7508,-0.7489,-0.7469,-0.7469,-0.7459,-0.7455,-0.7454,-0.7455,-0.7456,-0.7456,-0.7456,-0.7457,-0.7451,-0.7451,-0.745,-0.745,0,-0.7724,-0.7707,-0.7702,-0.7671,-0.7656,-0.7644,-0.7616,-0.7604,-0.7589,-0.757,-0.7551,-0.7527,-0.7502,-0.7496,-0.7481,-0.7473,-0.7471,-0.746,-0.745,-0.7459,-0.7459,-0.7459,-0.7453,-0.7452,-0.7452,-0.7451,0,0,-0.7753,-0.7707,-0.7706,-0.7691,-0.7658,-0.7645,-0.7631,-0.7606,-0.7597,-0.7575,-0.7562,-0.7536,-0.7526,-0.7511,-0.7493,-0.7486,-0.7489,-0.7476,-0.7475,-0.748,-0.7479,-0.7487,-0.7488,-0.7479,-0.7479,-0.7479,-0.7481,0,-0.7759,-0.7732,-0.7709,-0.769,-0.7675,-0.7649,-0.7637,-0.7615,-0.7597,-0.7581,-0.756,-0.7542,-0.753,-0.7521,-0.7512,-0.7491,-0.7489,-0.749,-0.7467,-0.7467,-0.7475,-0.7488,-0.7497,-0.75,-0.7481,-0.7481,-0.7481,0,-0.7763,-0.7742,-0.7722,-0.769,-0.7682,-0.7672,-0.7647,-0.7632,-0.7606,-0.7593,-0.7576,-0.7558,-0.7541,-0.7532,-0.7509,-0.751,-0.7499,-0.7487,-0.7486,-0.7484,-0.7475,-0.7486,-0.7501,-0.7501,-0.7481,-0.7481,-0.7481,0,-0.7787,-0.7753,-0.7737,-0.7725,-0.7687,-0.768,-0.7664,-0.7638,-0.7625,-0.7603,-0.7594,-0.7571,-0.7558,-0.7541,-0.7516,-0.7512,-0.7495,-0.7484,-0.7484,-0.7485,-0.7482,-0.7483,-0.7496,-0.7475,-0.7475,-0.7475,-0.7475,0,-0.7797,-0.7786,-0.7747,-0.7737,-0.7724,-0.7696,-0.7683,-0.7665,-0.7642,-0.7628,-0.7604,-0.7592,-0.756,-0.7543,-0.7524,-0.7507,-0.7501,-0.7491,-0.7486,-0.7493,-0.7494,-0.7486,-0.7485,-0.7475,-0.7475,-0.7475,-0.7475,0,-0.7822,-0.7796,-0.7776,-0.7741,-0.7732,-0.7724,-0.7694,-0.7683,-0.7663,-0.7645,-0.7639,-0.7608,-0.7587,-0.756,-0.7531,-0.7518,-0.7503,-0.7495,-0.7512,-0.7509,-0.751,-0.7511,-0.7519,-0.7518,-0.7497,-0.7497,-0.7498,0,-0.783,-0.7821,-0.7785,-0.7773,-0.7758,-0.774,-0.7726,-0.7698,-0.7684,-0.7653,-0.7646,-0.7623,-0.7603,-0.7571,-0.7545,-0.7522,-0.7514,-0.7518,-0.7511,-0.7518,-0.7514,-0.7515,-0.7514,-0.7521,-0.7521,-0.7521,-0.7522,0,-0.7848,-0.7835,-0.7816,-0.7791,-0.7775,-0.7755,-0.7734,-0.7726,-0.7693,-0.7679,-0.7656,-0.7641,-0.761,-0.7588,-0.7561,-0.7544,-0.7528,-0.7524,-0.7523,-0.7531,-0.7541,-0.7535,-0.7518,-0.7524,-0.7524,-0.7524,-0.7524,-0.7523,-0.7865,-0.7855,-0.7828,-0.7807,-0.7788,-0.7768,-0.7756,-0.7734,-0.7715,-0.7688,-0.7672,-0.765,-0.7624,-0.7586,-0.757,-0.7552,-0.7546,-0.7545,-0.7544,-0.7544,-0.7547,-0.7543,-0.7547,-0.7547,-0.7547,-0.7547,-0.7547,0,-0.7882,-0.7863,-0.7843,-0.7814,-0.7797,-0.7782,-0.7757,-0.7744,-0.7725,-0.7702,-0.7683,-0.7657,-0.7634,-0.7606,-0.7582,-0.7573,-0.7565,-0.7568,-0.7569,-0.7565,-0.7553,-0.7557,-0.7575,-0.7575,-0.7575,-0.7575,-0.7575,-0.7575,-0.7889,-0.7872,-0.7855,-0.7828,-0.7808,-0.7787,-0.7774,-0.7756,-0.7737,-0.7709,-0.769,-0.7671,-0.7646,-0.7619,-0.7598,-0.759,-0.7582,-0.7588,-0.7578,-0.7568,-0.7566,-0.7563,-0.7567,-0.7586,-0.7586,-0.7591,-0.7591,-0.7591]},{"header":{"parameterUnit":"m.s-1","parameterCategory":1,"la1":30.2991,"la2":30.254,"lo1":-89.0895,"lo2":-89.0444,"dy":0.0017,"dx":0.0017,"nx":28,"ny":28,"refTime":"2024-03-15T03:00:00:Z","depth":0,"parameterNumber":3,"parameterNumberName":"V-component_of_WINDS"},"data":[0,0,0,0,0,0,0,0,0,0,0,0,0,0,0,0,0,0,0,0,0,0,0,0,0,0,0,0,0,0,0,0,0,0,0,0,0,0,0,0,0,0,0,0,0,0,0,0,0,0,0,0,0,0,0,0,0,0,-0.9835,-0.9835,0,-0.985,-0.985,-0.985,-0.9833,-0.9833,-0.9832,-0.9832,-0.9846,-0.9847,-0.9848,0,0,0,0,0,0,0,0,0,0,0,0,0,-0.9794,-0.9795,-0.9835,-0.9835,-0.9836,-0.9849,-0.985,-0.985,-0.9834,-0.9833,-0.9832,-0.9831,-0.9846,-0.9847,-0.9848,0,0,0,0,0,0,0,0,0,0,0,0,0,-0.981,-0.9795,-0.9835,-0.9829,-0.9829,-0.9849,-0.985,-0.985,-0.9834,-0.9833,-0.9832,-0.9831,-0.9845,-0.9847,-0.9848,-0.9875,0,0,-0.9852,-0.9853,0,0,0,0,0,0,0,0,-0.9809,-0.9812,-0.983,-0.983,-0.9829,-0.9839,-0.984,-0.9858,-0.9834,-0.9832,-0.9832,-0.9831,-0.9844,-0.9846,-0.985,-0.9876,-0.9876,-0.9852,-0.9853,-0.9854,-0.9854,0,0,0,0,0,0,0,-0.9808,-0.9811,-0.9841,-0.983,-0.983,-0.9826,-0.9827,-0.9844,-0.9843,-0.9832,-0.9831,-0.9833,-0.9844,-0.9849,-0.9851,-0.9877,-0.9852,-0.9854,-0.9855,-0.9855,-0.9925,-0.9926,0,0,0,0,0,0,-0.9808,-0.981,-0.984,-0.9841,-0.9817,-0.9827,-0.9829,-0.9837,-0.9843,-0.9843,-0.9833,-0.9832,-0.9847,-0.9849,-0.9851,-0.9883,-0.9854,-0.9855,-0.9856,-0.9924,-0.9926,-0.9927,0,0,0,0,0,0,-0.9807,-0.9811,-0.984,-0.9825,-0.9829,-0.9829,-0.9838,-0.9837,-0.9843,-0.9844,-0.9844,-0.9839,-0.9846,-0.9849,-0.9869,-0.9884,-0.9856,-0.9857,-0.9923,-0.9925,-0.9926,-0.9948,0,0,0,0,0,0,-0.9806,-0.981,-0.9821,-0.9826,-0.983,-0.9858,-0.9839,-0.9838,-0.9845,-0.9843,-0.9849,-0.9849,-0.9846,-0.9867,-0.9871,-0.9885,-0.9858,-0.9922,-0.9924,-0.9926,-0.9946,-0.995,-0.9954,0,0,0,0,0,-0.9804,-0.9826,-0.9821,-0.9825,-0.9843,-0.9859,-0.9861,-0.9857,-0.9846,-0.9857,-0.9858,-0.9849,-0.9882,-0.987,-0.9873,-0.9888,-0.9921,-0.9923,-0.9926,-0.9945,-0.995,-0.9954,0,0,0,0,0,0,-0.9823,-0.9827,-0.9822,-0.9846,-0.9852,-0.9856,-0.9869,-0.9863,-0.9872,-0.987,-0.9864,-0.9866,-0.9888,-0.989,-0.9876,-0.9915,-0.9899,-0.9903,-0.9913,-0.9917,-0.9921,-0.992,-0.986,0,0,0,0,0,-0.983,-0.9843,-0.9846,-0.9867,-0.987,-0.9869,-0.9876,-0.9873,-0.9879,-0.9882,-0.9884,-0.989,-0.9902,-0.991,-0.9921,-0.9947,-0.9948,-0.9959,-0.9963,-0.9966,-0.9968,-0.9982,-0.9987,-0.9934,-0.9934,-0.9934,0,0,-0.9844,-0.9848,-0.9857,-0.9871,-0.9875,-0.9889,-0.9872,-0.9887,-0.9897,-0.9884,-0.9903,-0.9905,-0.9912,-0.9935,-0.9946,-0.9938,-0.9983,-0.9969,-0.9971,-0.9972,-0.9985,-0.999,-0.9995,-0.9936,-0.9935,-0.9935,0,0,-0.9878,-0.9882,-0.99,-0.9905,-0.9912,-0.9911,-0.9916,-0.9921,-0.9922,-0.9941,-0.9932,-0.9943,-0.9964,-0.9969,-0.9974,-1.001,-1.0002,-1.0013,-1.0033,-1.0047,-1.0051,-1.0055,-1.0068,-1.0072,-1.0016,-1.0016,-1.0016,0,-0.9895,-0.9915,-0.991,-0.9926,-0.9932,-0.9921,-0.994,-0.9945,-0.9955,-0.996,-0.9951,-0.9976,-0.998,-1.0004,-1.0013,-1.0018,-1.0023,-1.0013,-1.0051,-1.0055,-1.0058,-1.007,-1.0075,-1.0018,-1.0017,-1.0017,-1.0017,0,-0.9935,-0.9949,-0.9963,-0.9974,-0.9982,-0.9999,-0.9997,-1.0005,-1.0001,-1.0001,-1.0021,-1.0025,-1.0037,-1.0042,-1.0038,-1.0066,-1.0061,-1.0052,-1.0036,-1.0065,-1.0076,-1.008,-1.0019,-1.0019,-1.0019,-1.0018,0,0,-0.998,-0.9988,-0.9993,-0.9998,-1.0005,-1.0016,-1.0033,-1.0044,-1.0052,-1.0059,-1.0073,-1.009,-1.0082,-1.0088,-1.0084,-1.0096,-1.0124,-1.0085,-1.0085,-1.0092,-1.0155,-1.0163,-1.0168,-1.0119,-1.012,-1.0121,-1.0155,0,-1.0014,-1.0043,-1.0039,-1.0067,-1.008,-1.007,-1.0084,-1.009,-1.009,-1.0102,-1.0102,-1.0115,-1.0102,-1.0106,-1.0117,-1.0118,-1.0137,-1.0116,-1.0132,-1.0132,-1.013,-1.0174,-1.0181,-1.0214,-1.0159,-1.016,-1.016,0,-1.0057,-1.0066,-1.0095,-1.01,-1.0106,-1.0119,-1.0129,-1.014,-1.0146,-1.0146,-1.0153,-1.0147,-1.0163,-1.0147,-1.017,-1.0156,-1.0162,-1.0164,-1.0165,-1.0166,-1.0148,-1.0177,-1.0224,-1.0229,-1.0167,-1.0167,-1.0166,0,-1.0087,-1.0107,-1.0127,-1.0131,-1.0138,-1.0147,-1.015,-1.0156,-1.0163,-1.0172,-1.0177,-1.0187,-1.0193,-1.0202,-1.0199,-1.0187,-1.0222,-1.0206,-1.0222,-1.0222,-1.023,-1.023,-1.0279,-1.0234,-1.0234,-1.0234,-1.0234,0,-1.0125,-1.0143,-1.014,-1.0153,-1.0173,-1.0168,-1.0188,-1.019,-1.0195,-1.0208,-1.0199,-1.0211,-1.0207,-1.0218,-1.0216,-1.0235,-1.0238,-1.0238,-1.0237,-1.0239,-1.0239,-1.0243,-1.0241,-1.0235,-1.0235,-1.0235,-1.0234,0,-1.0162,-1.0161,-1.0182,-1.0187,-1.0188,-1.0203,-1.0207,-1.0218,-1.0218,-1.0234,-1.0238,-1.0238,-1.0251,-1.0249,-1.0263,-1.0262,-1.0286,-1.0282,-1.0284,-1.0283,-1.03,-1.0298,-1.0354,-1.0361,-1.0311,-1.0311,-1.0312,0,-1.0186,-1.02,-1.0206,-1.0214,-1.0218,-1.0231,-1.0238,-1.0234,-1.0242,-1.0251,-1.0261,-1.0274,-1.0284,-1.0305,-1.0306,-1.0317,-1.0314,-1.0333,-1.0316,-1.0317,-1.0314,-1.0314,-1.0315,-1.0336,-1.0337,-1.0337,-1.0337,0,-1.023,-1.0229,-1.024,-1.0251,-1.026,-1.0268,-1.0276,-1.0282,-1.0279,-1.0289,-1.0302,-1.031,-1.0325,-1.0337,-1.0348,-1.0351,-1.0344,-1.0343,-1.0347,-1.0349,-1.0349,-1.035,-1.0293,-1.0342,-1.0341,-1.0341,-1.0341,-1.034,-1.0261,-1.0273,-1.0279,-1.0292,-1.0297,-1.0305,-1.0316,-1.0317,-1.0328,-1.034,-1.0337,-1.0353,-1.0359,-1.0372,-1.0376,-1.0388,-1.0381,-1.0388,-1.0389,-1.0391,-1.0393,-1.0347,-1.039,-1.039,-1.039,-1.039,-1.039,0,-1.0304,-1.0308,-1.032,-1.0331,-1.034,-1.0333,-1.0341,-1.035,-1.0363,-1.037,-1.038,-1.0395,-1.0407,-1.0409,-1.0421,-1.043,-1.0427,-1.0433,-1.0432,-1.0433,-1.0398,-1.0394,-1.0435,-1.0435,-1.0435,-1.0435,-1.0435,-1.0435,-1.0328,-1.0348,-1.0347,-1.0369,-1.0373,-1.0388,-1.0393,-1.04,-1.0405,-1.0423,-1.0433,-1.0434,-1.0439,-1.045,-1.0461,-1.0462,-1.0466,-1.0474,-1.0473,-1.044,-1.0436,-1.0431,-1.0427,-1.0475,-1.0475,-1.0506,-1.0507,-1.0507]}]]